TimeMDT,TemperatureF,Dew PointF,Humidity,Sea Level PressureIn,VisibilityMPH,Wind Direction,Wind SpeedMPH,Gust SpeedMPH,PrecipitationIn,Events,Conditions,WindDirDegrees,DateUTC
12:53 AM,54.0,37.0,53,29.81,10.0,North,16.1,-,N/A,,Clear,360,2013-05-08 06:53:00
1:53 AM,54.0,39.0,57,29.80,10.0,North,17.3,-,N/A,,Clear,360,2013-05-08 07:53:00
2:53 AM,54.0,39.0,57,29.81,10.0,NNW,6.9,-,N/A,,Mostly Cloudy,340,2013-05-08 08:53:00
3:53 AM,55.0,37.9,53,29.83,10.0,NNW,6.9,-,N/A,,Overcast,330,2013-05-08 09:53:00
4:53 AM,53.1,39.0,59,29.83,10.0,WSW,9.2,-,N/A,,Overcast,240,2013-05-08 10:53:00
5:02 AM,53.6,41.0,62,29.99,10.0,SW,10.4,-,0.00,Rain-Thunderstorm,Light Rain,230,2013-05-08 11:02:00
5:17 AM,51.8,44.6,76,30.00,1.8,WSW,8.1,23.0,0.07,Rain-Thunderstorm,Heavy Rain,240,2013-05-08 11:17:00
5:24 AM,50.0,44.6,82,29.99,1.2,West,4.6,-,0.21,Rain-Thunderstorm,Heavy Rain,260,2013-05-08 11:24:00
5:29 AM,50.0,46.4,87,29.99,2.0,NW,5.8,-,0.24,Rain-Thunderstorm,Rain,310,2013-05-08 11:29:00
5:32 AM,50.0,46.4,87,29.98,3.0,NNW,5.8,-,0.25,Rain,Light Rain,330,2013-05-08 11:32:00
5:53 AM,50.0,46.0,86,29.85,10.0,NW,11.5,-,0.25,Rain,Light Rain,310,2013-05-08 11:53:00
6:00 AM,50.0,46.4,87,29.98,10.0,NNW,11.5,-,0.00,Thunderstorm,Mostly Cloudy,330,2013-05-08 12:00:00
6:20 AM,50.0,44.6,82,29.98,10.0,NNW,9.2,-,0.00,,Scattered Clouds,330,2013-05-08 12:20:00
6:53 AM,50.0,45.0,83,29.88,10.0,NNW,9.2,-,0.00,,Mostly Cloudy,330,2013-05-08 12:53:00
7:53 AM,52.0,45.0,77,29.90,10.0,West,10.4,-,N/A,,Overcast,280,2013-05-08 13:53:00
8:39 AM,53.6,46.4,77,30.00,10.0,NW,9.2,-,N/A,Thunderstorm,Thunderstorm,310,2013-05-08 14:39:00
8:53 AM,52.0,45.0,77,29.91,10.0,WNW,12.7,-,N/A,Thunderstorm,Thunderstorm,290,2013-05-08 14:53:00
9:46 AM,48.2,44.6,87,30.03,2.5,WNW,10.4,-,0.04,Rain,Rain,300,2013-05-08 15:46:00
9:53 AM,50.0,45.0,83,29.95,5.0,NW,9.2,-,0.08,Rain,Light Rain,310,2013-05-08 15:53:00
10:04 AM,50.0,44.6,82,30.03,5.0,Calm,Calm,-,0.01,Rain-Thunderstorm,Light Rain,0,2013-05-08 16:04:00
10:18 AM,48.2,46.4,93,30.05,5.0,SSW,15.0,-,0.02,Rain-Thunderstorm,Light Rain,210,2013-05-08 16:18:00
10:39 AM,48.2,44.6,87,30.05,5.0,NNW,5.8,-,0.06,Rain,Light Rain,330,2013-05-08 16:39:00
10:53 AM,48.9,46.0,90,29.96,5.0,NNE,9.2,-,0.06,Rain,Light Rain,30,2013-05-08 16:53:00
11:53 AM,52.0,42.1,69,29.92,10.0,WSW,10.4,24.2,0.01,,Overcast,250,2013-05-08 17:53:00
12:53 PM,54.0,42.1,64,29.92,10.0,North,8.1,-,N/A,,Mostly Cloudy,360,2013-05-08 18:53:00
1:53 PM,57.0,44.1,62,29.88,10.0,North,19.6,-,N/A,,Clear,10,2013-05-08 19:53:00
2:53 PM,57.9,44.1,60,29.88,10.0,North,19.6,-,N/A,,Clear,10,2013-05-08 20:53:00
3:48 PM,51.8,39.2,62,30.02,10.0,West,24.2,31.1,0.00,Rain,Light Rain,270,2013-05-08 21:48:00
3:53 PM,51.1,39.9,66,29.93,10.0,West,18.4,28.8,0.00,Rain,Light Rain,270,2013-05-08 21:53:00
4:00 PM,51.8,39.2,62,30.00,10.0,WNW,21.9,27.6,0.00,Rain,Light Rain,300,2013-05-08 22:00:00
4:19 PM,53.6,39.2,58,29.95,10.0,NW,19.6,26.5,0.00,,Overcast,320,2013-05-08 22:19:00
4:53 PM,57.0,39.9,53,29.83,10.0,NNW,23.0,31.1,0.00,,Clear,340,2013-05-08 22:53:00
5:42 PM,57.2,39.2,51,29.95,10.0,West,11.5,-,N/A,,Clear,260,2013-05-08 23:42:00
5:53 PM,59.0,37.9,46,29.86,10.0,West,12.7,-,N/A,,Clear,260,2013-05-08 23:53:00
6:53 PM,55.0,41.0,59,29.88,10.0,NE,9.2,-,N/A,,Clear,40,2013-05-09 00:53:00
7:53 PM,51.1,41.0,68,29.91,10.0,NNE,10.4,-,N/A,,Clear,30,2013-05-09 01:53:00
8:53 PM,50.0,39.9,68,29.95,10.0,NE,11.5,-,N/A,,Clear,50,2013-05-09 02:53:00
9:53 PM,48.0,41.0,77,29.99,10.0,North,9.2,-,N/A,,Clear,10,2013-05-09 03:53:00
10:53 PM,48.9,39.9,71,29.99,10.0,North,17.3,-,N/A,,Mostly Cloudy,10,2013-05-09 04:53:00
11:53 PM,48.9,41.0,74,30.00,10.0,North,11.5,-,N/A,,Clear,360,2013-05-09 05:53:00